Track OPTUS B1 (AUSSAT B1) now! OPTUS B1 (AUSSAT B1) is classified as:
1 22087U 92054A 23272.53094819 -.00000039 00000-0 00000-0 0 9997 2 22087 11.6377 30.9060 0012567 108.0421 259.2355 0.99206087124875